S-NET D (43186 NORAD) Tracking and Keplerian Element Data

This shows tracking and keplerian element data for the satellite.

Feedback or suggestion? Click here.




ElementValue
Catalog43186
NameS-NET D
Epoch Orbit38337
Epoch Day34.72816789
Epoch Year2025
RAAN299.0247
Inclination97.5742
Eccentricity0.0007897
Argument of Perigee304.62
Mean Anonmoly55.4284
Mean Motion15.09592331
Decay Rate9.563E-05
L11 43186U 18014G 25034.72816789 .00009563 00000+0 59836-3 0 9994
L22 43186 97.5742 299.0247 0007897 304.6200 55.4284 15.09592331383377



Live tracking and technical data element details for S-NET D (NORAD 43186). S-NET D can be tracked NOW for your location showing map with azimuth and elevation plus other details from your city location.







IsCatalogInMostPopularTable: catalog: 43186, numindb: 756
Update: records affected: 1



GetName: 43186 S-NET D

Hit Count: updated at: Mon, 23 Jun 2025 12:00:02 GMT